Regional Weather Roundup
Issued by NWS

Home | Current Version | Previous Version | Text Only | Print | Product List | Glossary On
Versions: 1 2 3 4 5 6 7 8 9 10 11 12 13 14 15 16 17 18 19 20 21 22 23 24 25 26 27 28 29 30 31 32 33 34 35 36 37 38 39 40 41 42 43 44 45 46 47 48 49 50
000
ASUS46 KLOX 230712
RWRCA

SOUTHERN CALIFORNIA WEATHER ROUNDUP
NATIONAL WEATHER SERVICE OXNARD CALIFORNIA
1200 AM PDT WED APR 23 2014

NOTE: "FAIR" INDICATES FEW OR NO CLOUDS BELOW 12,000 FEET WITH NO
SIGNIFICANT WEATHER AND/OR OBSTRUCTIONS TO VISIBILITY.

  -  STATIONS PRECEEDED BY AN ASTERISK (*) ARE NOT NWS OR FAA
     STATIONS AND ARE NOT SUBJECT TO NWS AND FAA QUALITY CONTROL.

CAZ041-042-087-230800-
LA AND ORANGE COUNTY COASTAL AREAS


CITY           SKY/WX    TMP DP  RH WIND       PRES   REMARKS
L.A. DOWNTOWN  CLEAR     58  48  69 CALM      29.91F
L.A. AIRPORT   PTCLDY    60  50  69 SW5       29.92F
LONG BEACH     CLEAR     60  49  66 SE7       29.93S

CITY           SKY/WX    TMP DP  RH WIND       PRES   REMARKS
AVALON           N/A     52 N/A N/A S3          N/A
FULLERTON      CLEAR     60  51  72 SE6       29.93R
*GETTY CENTER    N/A     61  25  25 NE25G35     N/A
HAWTHORNE      CLEAR     60  47  61 W3        29.92F
*LOS ALAMITOS  FAIR      58  53  85 SE5       29.93S
*REDONDO BEACH   N/A     58  49  70 CALM      29.90F
SANTA ANA      CLEAR     60  52  74 SE6       29.94R
STA MONICA APT CLEAR     60  49  66 CALM      29.92F
*UCLA            N/A     63  25  23 NW15G23   29.88S

$$

CAZ547-548-048-230800-
LA COUNTY VALLEYS AND INLAND EMPIRE


CITY           SKY/WX    TMP DP  RH WIND       PRES   REMARKS
BURBANK        CLEAR     63  23  21 N15       29.92R
VAN NUYS       CLEAR     63  22  20 N20G32    29.92S

CITY           SKY/WX    TMP DP  RH WIND       PRES   REMARKS
CORONA AIRPORT SUNNY     50  45  83 CALM      29.95R
*CHATSWORTH      N/A     62  31  30 NW6       29.90S
CHINO          CLEAR     54  49  83 W6        29.95S
MARCH AFB      CLEAR     54  50  86 SE8       29.95R
*NORTHRIDGE      N/A     63  19  19 N7G18       N/A
ONTARIO        CLEAR     55  49  80 NW3       29.93S
*PASADENA        N/A     57  48  72 E1          N/A
RIVERSIDE      CLEAR     58  48  69 CALM      29.94R
SAN BERNARDINO NOT AVBL
*SAN GABRIEL     N/A     58  45  61 CALM      29.91R
*WHITEMAN AP   NOT AVBL
*WOODLAND HILL   N/A     61  27  27 N5          N/A

$$

CAZ054-055-230800-
LA AND SAN BERNARDINO COUNTY MOUNTAINS


CITY           SKY/WX    TMP DP  RH WIND       PRES   REMARKS
*BIG BEAR AIRP SUNNY     39  14  35 SW9G16    30.00S WCI  33
MT WILSON NWS    N/A     39  12  33 NE8         N/A  WCI  34
SANDBERG       PTCLDY    44  23  43 N22G32    30.02R

$$

CAZ028-029-059-060-099-230800-
ANTELOPE VALLEY AND SURROUNDING AREAS


CITY           SKY/WX    TMP DP  RH WIND       PRES   REMARKS
LANCASTER      MOCLDY    52  23  32 W13       29.98R
PALMDALE       MOCLDY    53  23  31 W17       29.99S

CITY           SKY/WX    TMP DP  RH WIND       PRES   REMARKS
29 PALMS       CLEAR     60  10  14 N8        29.92R HAZE
BARSTOW/DAGGET CLEAR     59  15  18 W26G36    29.88R
BISHOP         PTCLDY    45  15  30 W5        29.94R
CHINA LAKE       N/A     58  21  24 S10       29.83R
EDWARDS AFB    CLOUDY    56  20  24 W28G35    29.89F
MOJAVE         FAIR      52  18  25 W32G49    29.88F
NEEDLES        CLEAR     72   8   8 VRB3G20   29.76R
VICTORVILLE      N/A     54  19  26 W21G26    29.94S

$$

CAZ039-040-230800-
VENTURA AND SANTA BARBARA COUNTY COAST


CITY           SKY/WX    TMP DP  RH WIND       PRES   REMARKS
CAMARILLO      CLEAR     56  47  71 CALM      29.93R
NWS OXNARD       N/A     57  49  75 CALM      29.93R
OXNARD AIRPORT CLEAR     56  49  77 NW7       29.93R
*POINT MUGU    CLEAR     55  48  77 CALM      29.93R
SBA APT/GOLETA CLEAR     59  36  42 E7        29.94S
*SANTA BARBARA   N/A     65  29  26 CALM      30.02R
*VENTURA         N/A     56  45  67 CALM      29.96S

$$

CAZ044-045-230800-
VENTURA COUNTY VALLEYS


CITY           SKY/WX    TMP DP  RH WIND       PRES   REMARKS
*SIMI VALLEY     N/A     61  28  28 N23       29.88S
*OJAI            N/A     51  34  52 CALM      29.89R
*FILLMORE        N/A     50  45  82 S1        29.85R

$$

CAZ053-230800-
VENTURA COUNTY MOUNTAINS


CITY           SKY/WX    TMP DP  RH WIND       PRES   REMARKS
*LOCKWOOD VLY    N/A     34  18  51 CALM        N/A
*ROSE VALLEY     N/A     46  25  42 MISG        N/A

$$

CAZ034-035-036-230800-
CENTRAL COAST AND SANTA YNEZ VALLEY


CITY           SKY/WX    TMP DP  RH WIND       PRES   REMARKS
SAN LUIS OBISP CLEAR     52  43  71 W9        30.05R
SANTA MARIA    CLEAR     51  44  77 NW6       30.05R

CITY           SKY/WX    TMP DP  RH WIND       PRES   REMARKS
*CAL POLY SLO    N/A     55  37  50 NW7G15      N/A
*CAMBRIA         N/A     45  40  84 E1        29.96R
*LOMPOC        CLEAR     52  43  71 W9        30.05S
*PISMO BEACH     N/A     56  41  58 W1        30.05R
*SANTA YNEZ    FAIR      46  39  76 SW3       30.00S

$$

CAZ037-038-051-230800-
SAN LUIS OBISPO COUNTY INTERIOR AND CUYAMA VALLEY


CITY           SKY/WX    TMP DP  RH WIND       PRES   REMARKS
*CUYAMA          N/A     52  26  35 NE7       29.92R
PASO ROBLES    CLEAR     50  37  61 NW15      30.07R

$$

CAZ032-033-061-230800-
SOUTHERN DESERTS


CITY           SKY/WX    TMP DP  RH WIND       PRES   REMARKS
BLYTHE         CLEAR     66  36  32 SW5       29.75R
IMPERIAL       CLEAR     66  34  30 W20G26    29.75F
PALM SPRINGS   CLEAR     68  44  42 SE7       29.75S
THERMAL        CLEAR     70  46  42 NW15G26   29.73R

$$

ELSEWHERE ACROSS THE WESTERN UNITED STATES AND MEXICO


CITY           SKY/WX    TMP DP  RH WIND       PRES   REMARKS
DENVER, CO     CLOUDY    60  32  34 S18       29.65F
GRAND CANYON,  CLEAR     46  17  31 SW7       29.92R
HONOLULU, HI   PTCLDY    75  63  64 NE7       30.08R
KAHULUI, MAUI  CLEAR     73  64  73 NE16      30.09R
LAKE TAHOE, CA MOCLDY    32  26  78 S3        30.04S
LAS VEGAS, NV  PTCLDY    68  -6   5 W10       29.75R
MAMMOTH LAKES, FAIR      32  14  47 SE3       29.99S
MEXICO CITY, M PTCLDY    57  46  67 CALM      30.31S
PHOENIX, AZ    PTCLDY    80  29  15 W13       29.71R
PORTLAND, OR   LGT RAIN  47  43  86 S16G23    29.96R
RENO, NV       MOCLDY    43  24  47 NW10      30.04R
SALT LAKE CITY CLOUDY    41  41 100 S5        29.88R
SAN DIEGO, CA  PTCLDY    61  50  67 S7        29.97S
SAN FRANCISCO, PTCLDY    53  44  71 W17       30.14S
SAN JOSE, CA   PTCLDY    51  39  63 W14       30.14R
SEATTLE, WA    CLOUDY    44  42  93 S9        29.88S
TIJUANA, MEX   CLEAR     57  45  62 SW3       29.99S

$$

STATION/POSITION TIME  TEMP    WIND        PRES    VSBY  WAVE
                       AIR SEA DIR/SP/G                  HT/PER
                 (UTC) (F)     (DEG/KT/KT) (MB)    (MI)  (FT/S)
POINT ARGUELLO B NOT AVBL
WEST SANTA BARBA 0700   54 53  330/ 27/ 31 1015.4F        12/ 8
POINT CONCEPTION NOT AVBL
EAST SANTA BARBA NOT AVBL
SANTA MONICA BAY 0700   60 61  310/ 12/ 16 1013.2R         8/ 7



USA.gov is the U.S. government's official web portal to all federal, state and local government web resources and services.